User: anonymous   Login
Location: ???????
(55.9142°N, 37.8256°E)
Time: 08:29:18
(UTC+00:00)
Language:

Cosmos 1733 - Orbit

View from above orbital plane
View from above orbital plane
View from above satellite
View from above satellite

Ground track
Ground track

The orbit data is extracted from the following two-line orbital elements,

1 16611U 86018A   24169.84778876  .00014403  00000-0  42428-3 0  9990
2 16611  82.4820  13.7578 0010028  69.1767 291.0549 15.34862999 97135
Epoch (UTC): 17 June 2024 20:20:48
Eccentricity: 0.0010028
inclination: 82.4820°
perigee height: 454 km
apogee height: 468 km
right ascension of ascending node: 13.7578°
argument of perigee: 69.1767°
revolutions per day: 15.34862999
mean anomaly at epoch: 291.0549°
orbit number at epoch: 9713

The dashed part of the orbit path shows where the satellite is in the earth's shadow,  

DLR